Showing default

HAWK-B, 43794

Orbit data source: Space-Track

HAWK-B, 43794 is a payload satellite owned by HawkEye 360 (US) in SSO that was launched on Mon, 03 Dec 2018 UTC via an FALCON 9 launch vehicle from the Air Force Western Test Range (AFWTR). Payload-class satellites include a variety of spacecraft equipped with specific instruments for various scientific and technological missions. These include communications satellites like Starlink; space stations such as the ISS; scientific satellites like the Hubble; Earth observation satellites from companies like Planet Labs, Umbra, and HawkEye 360; GPS; miniature CubeSats for education and research; and military/defense satellites.

Loading next visibility...
Identifier
43794, 2018-099AN
Orbit
SSO
Country
Flag of USUS
Related business
Manufacturer
UTIAS-SFL
Mission
Operational Commercial Sigint
Bus & Motor
NEMO-V1, Unknown motor
Mass
12.75 kg wet, 12 kg dry
Launch date (UTC)
2018-12-03 (8 years ago)
Launch vehicle
FALCON 9
Launch site
Air Force Western Test Range (AFWTR)
Object type
Payload
Rocket body
Debris
Shape & HBR
Box + 2 Pan, 1.0 m
Radar Cross Section
0.348 m², Medium (>0.1 m² and < 1m²)

Expand to show TLE details & history
Last TLE update: 2 days ago

TLE from 2 days ago
0 HAWK-B
1 43794U 18099AN  26171.12961070  .00004571  00000-0  19590-3 0  9991
2 43794  97.3956 222.7361 0030342 294.0424  65.7638 15.22851797413480
Epoch: 2026-06-20T03:06Z
TLE epoch observation values (Epoch: 2026-06-20T03:06:38.364Z)
Latitude
-0.00004°
Longitude
-92.27241°
Altitude
491.825 km
Speed
7.624 km/s
True Right ascension
14h 50m 56s
True Declination
0° 00' 00"
Sunlit
Object was in full shadow at epoch
Visualization orbit readout
Latitude
Unknown
Longitude
Unknown
Altitude
Unknown
Speed
Unknown
Apparent Right ascension
Unknown
Apparent Declination
Unknown
Sunlit
N/A
Visualization observer readout
Local Sidereal Time
21:41:47
Azimuth
Unknown
Elevation
Unknown
Doppler factor
Unknown
Orbital elements
Apogee altitude
515.057 km
Perigee altitude
473.353 km
Semi-major axis
6,872.342 km
Eccentricity
0.00303
Inclination
97.3956°
RAAN
222.7361°
Arg. of periapsis
294.0424°
True anomaly
66.08134°
Mean anomaly
65.7638°
Eccentric anomaly
65.92252°
Mean motion
3.80966 °/min
Orbital period
94.5 mins
BSTAR
0.0001959
Loading maneuver chart data...
Computing Atmospheric mass density...
Loading historical data...
Loading historical data...
Loading historical data...
Loading historical data...
Loading historical data...
Loading historical data...
Loading historical data...

Documentation

Showing up to 5 results
|